THOR ABLESTAR R/B, 953

Orbit data source: Space-Track

THOR ABLESTAR R/B, 953 is space debris in LEO originally from a launch on Sun, 13 Dec 1964 UTC launched from the Air Force Western Test Range (AFWTR). Debris objects in space refer to the collection of defunct objects orbiting the Earth. Examples of debris include non-operational satellites, rocket bodies, and fragments generated from explosions, collisions, or faulty payload assembly.

Loading next visibility...
Identifier
953, 1964-083A
Orbit
LEO
Last TLE update
15 hours ago
Origin
Manufacturer
Aerojet
Mission
Spacecraft
Bus & Motor
ABLESTAR, Unknown motor
Mass
~600 kg wet, 600 kg dry
Launch date (UTC)
1964-12-13 (60 years ago)
Launch vehicle
Unknown
Launch site
Air Force Western Test Range (AFWTR)
Object type
Payload
Rocket body
Debris
Shape & HBR
Cyl, 4.8 m
Radar Cross Section
6.048 m², Large (>1 m²)

Expand to show TLE details & history

TLE from 15 hours ago
0 THOR ABLESTAR R/B
1   953U 64083A   25128.73683646  .00000051  00000-0  57091-4 0  9991
2   953  90.0253 191.8069 0031870 177.8303 330.6406 13.58801380994157
Epoch: 2025-05-08T17:41Z
Definitive object data (Epoch: 2025-05-08T17:41:02.67Z)
Latitude
31.76357°
Longitude
-120.24169°
Altitude
1,023.585 km
Speed
7.353 km/s
True Right ascension
00h 47m 17s
True Declination
31° 36' 55"
Sunlit
Object was in daylight at TLE epoch
Visualization TLE readout
Latitude
49.38286°
Longitude
59.71505°
Altitude
1,062.005 km
Speed
7.319 km/s
Apparent Right ascension
08h 59m 39s
Apparent Declination
16° 04' 55"
Sunlit
Object is in daylight
Visualization observer readout
Local Sidereal Time
17:15:32
Azimuth
304.952° NW
Elevation
-13.536°
Doppler factor
1
Orbital elements
Apogee altitude
1,060.721 km
Perigee altitude
1,013.456 km
Semi-major axis
7,415.225 km
Eccentricity
0.003187
Inclination
90.0253°
RAAN
191.8069°
Arg. of periapsis
177.8303°
True anomaly
330.46092°
Mean anomaly
330.6406°
Eccentric anomaly
330.55082°
Mean motion
3.39904 °/min
BSTAR
0.000057091
Orbital period
105.91 mins
Loading maneuver chart data...
Loading SW <> Apogee altitude chart data...

THOR ABLESTAR R/B Visibility forecast

Observer location: undefined°, undefined°

Span
Click to sort rows by Start time (UTC) header in descending order
Start Az.
Max El. time (UTC)
Max El. Az.
Max El.
End time (UTC)
End Az.
4 mins2025-05-09 14:48:16.259Z54.153° ENE2025-05-09 14:50:16.259Z73.125° E12.265°2025-05-09 14:52:16.259Z92.539° ESE
11 mins2025-05-09 16:32:16.259Z2.225° NNE2025-05-09 16:37:16.259Z191.781° SSW44.957°2025-05-09 16:43:16.259Z184.313° SSW
11 mins2025-05-10 04:25:16.259Z172.076° S2025-05-10 04:30:16.259Z36.171° NE44.573°2025-05-10 04:36:16.259Z359.446° N
5 mins2025-05-10 06:14:16.259Z261.732° W2025-05-10 06:16:16.259Z281.244° WNW14.054°2025-05-10 06:19:16.259Z310.22° NW
|